Location: M�nchen
(48.1404°N, 11.6043°E)
Time: 16:49:37
(UTC+01:00)

ISS - Pass Details

Date: 12 February 2018
Orbit: 403 x 407 km, 51.6° (Epoch: 21 February)

Event Time Altitude Azimuth Distance (km) Brightness Sun altitude
Rises 18:32:38 0° 288° (WNW) 2,321 1.3 -10.8°
Reaches altitude 10° 18:34:58 10° 274° (W) 1,459 0.4 -11.2°
Maximum altitude 18:37:39 24° 219° (SW) 893 -1.5 -11.7°
Drops below altitude 10° 18:40:19 10° 163° (SSE) 1,452 -1.1 -12.1°
Enters shadow 18:42:34 - 149° (SSE) 2,282 -0.3 -12.5°
